Find Starlink 32327

NORAD ID: 61641 Int'l Des: 2024-191 Owner: SPXS Country: US Constellation: starlink operational
LEOCIRCULAR

Live-Position

3D-Globus wird geladen...

Über Starlink 32327

Beschreibung wird geladen...

Nächste Überflüge

Passes for default location (London). Set your location on the main map for personalized predictions.

Höhenverlauf

Loading altitude history...

Zweizeiliger Elementsatz

1 61641U 24191W 26124.49831532 .00006274 00000-0 23733-3 0 9995
2 61641 42.9985 199.1436 0001605 287.3470 72.7206 15.27575662 86074
Epoch: 4. Mai 2026 • Age: 15 hours

Aktueller Status

Höhe 485.2 km
Geschwindigkeit 7.63 km/s
Subsatellitenpunkt 33.19°N, 68.92°E
Startdatum 23. Okt. 2024
Alter 1.5 years
Typ internet

Technische Details

Klassifizierung Payload
Masse 730.00 kg
Trockenmasse 700.00 kg
Gesamtmasse 730.00 kg
Länge 0.30 m
Durchmesser 4.10 m
Spannweite 29.00 m
Form Box + pan
Hersteller SPXS
Bus-Typ Starlink V2M
Phasenstatus In Orbit
Besitzer/Staat SPXS/US

Most Searched